Temperature
1 2 2 2 2 2 2 3 3 3 3 4 3 3 3 3 3 3 3 4 4 4 4 4 4 4 4 4 4 4 4 4 4 4 4 4 4 4 4 4 4 4 4 4
1 2 2 2 2 2 3 3 3 3 3 3 3 3 3 3 3 3 3 3 3 3 3 3 4 4 4 4 4 4 4 4 4 4 4 4 4 4 4 3 3 3 3 3
0 1 2 1 2 2 2 2 3 3 3 2 2 2 2 3 3 3 3 3 3 3 3 3 3 3 3 3 3 3 3 3 3 3 3 3 3 3 3 3 3 3 3 2
-1 0 -0 1 2 2 2 2 2 2 2 2 1 1 2 2 2 2 2 2 2 2 2 2 2 2 3 3 3 3 3 3 2 2 2 2 3 3 2 2 2 2 2 2
-1 -1 -0 1 1 1 1 1 1 1 1 1 1 1 1 1 2 2 2 2 2 2 2 2 2 2 2 2 2 2 2 2 2 2 2 2 2 2 2 2 2 1 1 1
-2 -1 -1 0 1 1 1 0 0 1 0 0 1 -0 -0 0 1 1 1 1 1 1 1 1 1 1 1 1 1 1 1 1 1 1 1 1 1 1 1 1 1 1 1 1
-2 -2 -1 -1 0 1 0 -0 0 0 0 0 -0 -0 -0 -0 0 1 1 1 1 1 1 1 1 1 1 1 1 1 1 1 1 1 1 1 1 1 0 0 0 0 0 0
-3 -3 -2 -1 -1 -1 -1 -0 -0 -0 -0 -0 -0 -0 -1 -0 -0 -0 -0 -0 -0 0 0 -0 -0 -0 0 0 0 0 0 0 0 0 0 0 0 0 -0 -0 -0 -0 -0 -0
-3 -2 -2 -2 -1 -1 -1 -1 -1 -1 -1 -1 -1 -1 -1 -1 -1 -1 -1 -1 -1 -1 -1 -1 -1 -1 -1 -1 -1 -0 -0 -0 -0 -0 -0 -0 -0 -0 -0 -1 -1 -1 -1 -1
-3 -3 -3 -2 -2 -1 -1 -1 -1 -1 -1 -1 -1 -1 -1 -1 -1 -1 -1 -1 -1 -1 -1 -1 -1 -1 -1 -1 -1 -1 -1 -1 -1 -1 -1 -1 -1 -1 -1 -1 -1 -2 -2 -2
-4 -3 -3 -3 -2 -2 -2 -1 -1 -1 -1 -1 -1 -2 -2 -2 -2 -2 -2 -2 -2 -2 -2 -2 -2 -2 -2 -2 -2 -2 -2 -2 -2 -2 -2 -1 -1 -1 -2 -2 -2 -2 -3 -3
-4 -4 -4 -4 -3 -3 -2 -2 -2 -2 -2 -2 -2 -2 -2 -2 -2 -2 -2 -2 -2 -2 -3 -2 -2 -2 -2 -2 -2 -2 -2 -2 -2 -2 -2 -2 -2 -2 -2 -3 -3 -3 -3 -3
-4 -4 -4 -4 -4 -3 -3 -3 -3 -3 -3 -3 -3 -3 -3 -3 -3 -3 -3 -3 -3 -3 -3 -3 -3 -3 -3 -3 -3 -3 -3 -3 -3 -3 -3 -3 -3 -3 -3 -3 -3 -3 -3 -3
-4 -4 -4 -4 -4 -4 -4 -4 -4 -3 -3 -3 -3 -3 -3 -4 -4 -4 -4 -4 -4 -4 -3 -3 -3 -3 -3 -3 -3 -3 -3 -3 -3 -3 -3 -3 -3 -4 -4 -4 -4 -4 -4 -4
-5 -5 -5 -5 -5 -5 -4 -4 -4 -4 -4 -4 -4 -4 -4 -4 -4 -4 -4 -4 -4 -4 -4 -4 -4 -4 -4 -4 -4 -4 -4 -4 -4 -4 -4 -4 -4 -4 -4 -5 -5 -4 -4 -4
-6 -6 -6 -6 -6 -5 -5 -5 -5 -5 -5 -5 -5 -5 -5 -5 -5 -5 -5 -5 -5 -5 -4 -4 -4 -4 -4 -4 -4 -4 -4 -4 -4 -4 -4 -4 -4 -5 -5 -5 -5 -5 -5 -5
-6 -7 -6 -6 -6 -6 -6 -6 -6 -6 -6 -5 -5 -5 -5 -5 -5 -5 -5 -5 -5 -5 -5 -5 -5 -5 -5 -5 -5 -5 -5 -5 -5 -5 -5 -5 -5 -5 -5 -5 -5 -5 -5 -5
-7 -7 -7 -7 -7 -7 -7 -6 -6 -6 -6 -6 -6 -6 -6 -6 -6 -6 -6 -6 -6 -6 -5 -5 -5 -5 -5 -5 -5 -5 -5 -5 -5 -5 -5 -6 -6 -6 -6 -6 -6 -6 -5 -5
-7 -7 -7 -7 -7 -7 -7 -7 -7 -7 -7 -7 -7 -7 -7 -7 -7 -7 -7 -6 -6 -6 -6 -6 -6 -6 -6 -6 -6 -6 -6 -6 -6 -6 -6 -6 -6 -6 -6 -6 -6 -6 -6 -5
-8 -8 -8 -7 -7 -7 -7 -7 -7 -7 -7 -7 -7 -7 -7 -7 -7 -7 -7 -7 -7 -7 -7 -7 -7 -6 -6 -6 -6 -6 -6 -6 -6 -6 -6 -6 -7 -7 -7 -6 -6 -6 -6 -6
-8 -8 -8 -8 -8 -8 -8 -8 -8 -8 -8 -8 -8 -8 -7 -7 -8 -8 -8 -7 -7 -7 -7 -7 -7 -7 -7 -7 -7 -7 -7 -7 -7 -7 -7 -7 -7 -7 -7 -7 -6 -6 -6 -6
-9 -9 -8 -8 -8 -8 -8 -8 -8 -8 -8 -8 -8 -8 -8 -8 -8 -8 -8 -8 -8 -8 -8 -8 -7 -7 -7 -7 -7 -7 -7 -7 -7 -7 -7 -7 -7 -7 -7 -7 -7 -7 -7 -6
-9 -9 -9 -9 -9 -9 -9 -9 -9 -9 -8 -8 -8 -8 -8 -8 -8 -8 -8 -8 -8 -8 -8 -8 -8 -8 -8 -8 -7 -7 -7 -7 -7 -7 -7 -7 -7 -7 -7 -7 -7 -7 -7 -7
-9 -9 -9 -9 -9 -9 -9 -9 -9 -9 -9 -9 -9 -9 -9 -9 -9 -9 -9 -9 -9 -9 -8 -8 -8 -8 -8 -8 -8 -8 -8 -8 -8 -8 -7 -7 -7 -7 -7 -7 -7 -7 -7 -7
-10 -10 -10 -10 -10 -10 -10 -10 -9 -9 -9 -9 -9 -9 -9 -9 -9 -9 -9 -9 -9 -9 -9 -8 -8 -8 -8 -8 -8 -8 -8 -8 -8 -8 -8 -7 -7 -7 -7 -7 -7 -7 -7 -7
-10 -10 -10 -10 -10 -10 -10 -10 -10 -10 -10 -10 -9 -9 -9 -9 -9 -9 -9 -9 -9 -9 -9 -9 -9 -9 -8 -8 -8 -8 -8 -8 -8 -8 -8 -8 -8 -8 -7 -7 -7 -7 -7 -7
-10 -10 -10 -10 -10 -10 -10 -10 -10 -10 -10 -10 -10 -10 -10 -10 -9 -9 -9 -9 -9 -9 -9 -9 -9 -9 -9 -8 -8 -8 -8 -8 -8 -8 -8 -8 -8 -8 -8 -8 -8 -7 -7 -7
Wind_Speed
3 3 3 4 5 5 6 6 6 6 6 6 5 4 5 5 5 5 4 4 4 3 3 3 3 3 3 3 2 2 2 1 1 1 1 1 1 2 2 1 2 2 2 2
1 2 2 3 4 5 6 5 6 4 6 3 2 2 4 5 6 5 4 3 3 3 3 3 3 3 3 3 3 2 2 2 2 2 2 1 2 2 2 2 2 2 2 2
2 1 2 3 4 5 4 4 6 7 5 4 4 5 5 5 5 5 4 3 3 2 2 1 2 2 3 3 3 3 2 2 2 2 2 2 2 2 2 2 2 2 2 2
2 2 3 4 2 2 3 2 2 3 4 5 5 3 3 3 4 4 4 3 2 2 1 2 2 3 3 3 3 3 3 3 3 2 2 3 2 2 3 2 2 2 3 3
2 2 3 4 2 0 1 1 1 4 5 4 5 5 4 2 3 3 3 3 2 1 1 2 2 2 3 3 3 3 3 3 3 3 3 3 3 3 3 2 2 2 2 2
2 2 4 3 4 3 2 1 2 2 5 5 5 3 1 1 3 4 3 3 2 3 3 3 2 2 3 3 3 3 3 3 3 3 3 3 3 3 3 2 2 3 3 3
2 2 4 4 6 2 3 3 1 1 3 4 2 2 3 3 2 3 3 3 3 3 3 2 2 3 3 3 3 3 3 3 3 3 3 3 2 2 2 2 2 2 3 3
3 2 5 4 2 2 2 1 1 1 2 3 3 3 3 3 3 2 2 3 3 3 3 3 3 3 3 3 4 3 3 3 3 3 3 3 2 3 2 1 2 3 3 3
4 3 2 2 1 2 0 1 1 1 2 3 3 2 2 1 2 1 2 2 2 2 2 3 2 1 1 4 4 3 3 3 3 4 3 3 2 2 2 1 1 2 3 3
1 1 2 3 3 4 3 2 2 2 2 3 3 2 1 1 1 1 1 1 1 1 2 3 3 2 2 3 3 2 3 3 3 3 4 3 3 2 2 2 2 2 3 3
0 2 2 4 4 3 4 5 5 4 3 3 3 2 1 1 1 1 1 1 1 1 2 3 3 3 3 3 3 2 3 3 3 3 3 3 3 2 3 2 3 3 3 3
2 3 1 2 3 3 4 3 3 3 3 2 1 1 0 0 0 0 0 1 1 2 2 3 3 4 4 3 2 2 3 3 3 3 3 2 3 4 5 4 6 6 5 5
2 2 1 1 3 4 3 3 3 2 1 1 1 1 1 0 1 0 1 1 1 2 3 3 3 4 4 4 3 2 3 3 3 3 3 3 3 3 4 5 6 6 6 6
3 2 1 2 2 4 4 3 3 3 2 1 1 1 1 1 1 1 2 2 2 2 3 4 4 5 5 4 3 3 3 4 4 3 3 3 3 3 3 3 4 4 5 6
5 3 1 1 2 4 4 3 3 3 3 2 1 1 1 1 2 2 3 3 2 3 3 3 4 5 5 4 3 4 3 3 3 3 3 3 3 2 2 3 3 3 3 4
4 3 3 3 3 3 3 3 3 3 3 3 2 2 1 1 2 2 2 2 2 3 4 4 5 6 5 4 4 3 3 5 4 2 2 2 2 2 2 2 2 2 3 3
2 2 2 2 3 3 3 3 2 3 3 3 2 2 1 1 2 2 3 3 3 4 4 5 6 6 5 4 3 3 2 3 4 3 2 2 2 2 2 2 2 2 3 3
2 2 2 3 2 3 3 3 3 3 3 3 2 1 1 1 2 3 3 4 4 4 5 5 5 5 4 4 3 2 2 2 2 2 2 2 2 2 2 1 2 2 3 3
3 2 3 3 2 2 3 3 3 3 3 2 2 1 2 2 2 3 3 3 4 5 5 5 8 5 4 4 4 1 1 2 2 2 2 2 2 1 1 1 2 2 2 2
4 4 3 3 3 3 3 3 3 3 3 2 1 1 2 3 3 3 3 3 4 4 5 6 5 3 3 3 3 1 1 1 2 2 1 1 1 1 1 2 2 2 2 2
4 4 4 4 4 4 3 3 2 3 3 2 1 2 3 3 3 3 3 4 5 5 5 6 4 3 3 3 3 1 1 1 1 1 1 1 1 1 1 2 2 2 2 2
3 3 4 3 3 4 4 3 2 3 3 3 2 2 2 3 3 3 3 3 4 6 5 3 3 4 4 3 1 1 1 1 1 1 1 1 1 1 2 2 2 2 2 2
3 3 3 3 3 4 4 3 3 2 2 3 3 3 3 3 3 2 4 3 3 6 5 3 4 5 4 2 1 1 1 1 1 1 1 1 1 1 2 2 2 2 2 2
3 3 3 3 3 3 4 4 4 3 3 3 3 3 3 3 3 3 3 5 6 6 4 4 5 5 4 2 1 1 1 1 1 1 1 1 1 1 2 2 2 2 2 2
2 2 3 3 3 3 3 4 4 4 3 3 4 4 3 2 2 3 3 3 5 5 3 4 5 5 3 2 2 1 1 1 1 1 1 1 1 1 2 2 2 2 2 2
2 2 2 2 2 3 3 3 3 3 3 3 4 3 3 3 2 2 2 3 3 4 3 3 3 3 2 2 2 2 2 2 2 2 2 1 2 2 2 2 2 2 2 3
2 2 2 2 3 2 2 2 3 3 3 3 3 3 3 3 3 3 3 3 3 3 3 3 2 2 2 2 2 2 2 2 1 1 1 1 1 2 2 2 2 2 2 2
Wind_Direction
230 231 196 223 227 212 213 207 202 220 219 228 211 185 160 147 133 118 109 96 92 82 65 53 43 34 38 33 23 31 52 44 352 326 334 338 331 323 321 314 307 303 300 303
257 237 214 257 251 231 229 217 210 214 253 245 191 136 135 138 136 131 121 112 99 82 66 51 40 29 25 19 7 25 43 17 353 350 350 339 323 325 331 323 315 312 296 299
216 250 54 276 250 225 216 217 199 220 229 161 146 151 160 156 143 142 137 120 111 102 90 57 30 27 14 5 9 26 25 12 5 350 341 323 321 335 325 312 309 311 310 303
160 106 205 245 285 201 190 238 192 158 144 144 140 118 99 127 133 136 132 120 113 107 77 32 24 21 17 17 24 30 19 12 7 356 342 330 324 319 309 303 304 303 302 300
143 174 265 299 323 4 155 312 76 140 127 117 110 84 44 44 93 121 124 120 118 112 99 59 36 29 41 27 24 24 10 1 354 350 341 334 324 312 309 310 309 308 312 305
135 164 223 259 301 305 108 280 343 123 140 144 127 129 217 64 76 82 81 77 74 59 54 43 17 37 52 26 21 1 339 330 329 333 329 317 305 303 306 308 306 312 317 313
167 213 262 287 301 3 143 235 309 99 138 143 164 177 158 124 85 85 78 65 62 62 52 29 20 45 38 15 348 323 325 332 337 330 319 308 308 310 313 322 325 322 317 315
160 197 255 314 37 129 223 299 48 89 123 119 119 118 123 117 103 84 65 55 55 53 29 13 24 42 21 344 322 325 336 341 339 331 325 327 321 313 316 322 329 324 321 322
186 207 279 357 48 327 12 73 33 77 101 115 117 122 111 111 111 92 78 58 56 60 16 2 4 27 341 312 319 332 341 333 329 330 329 322 315 312 317 322 319 316 318 318
138 329 340 4 12 14 34 55 58 88 104 114 120 120 89 96 80 70 54 48 37 39 11 344 344 353 328 316 326 336 328 321 322 325 328 332 329 326 314 307 305 306 309 308
305 307 354 5 5 12 36 51 57 53 60 89 111 111 94 81 60 45 8 4 26 5 328 319 327 333 331 325 331 331 319 315 321 323 319 324 327 322 315 293 286 289 282 282
244 267 261 300 342 21 44 33 39 45 31 32 92 119 76 65 327 328 336 331 335 325 316 314 322 321 321 320 315 308 312 310 308 311 311 316 322 327 333 326 325 320 307 297
270 295 243 327 0 11 15 6 15 30 38 24 29 48 39 359 343 345 326 319 314 310 310 310 316 316 316 313 306 289 285 293 296 299 300 306 310 313 321 335 340 338 331 324
357 23 41 359 350 5 15 13 20 23 17 22 12 14 33 14 356 340 314 305 303 304 306 307 309 308 309 307 301 293 286 291 292 284 283 288 291 294 294 303 317 324 330 331
357 5 16 11 11 10 7 13 20 9 4 1 10 19 25 1 328 316 310 311 316 312 309 308 308 305 308 303 297 291 287 284 282 280 279 283 286 288 288 291 296 310 319 327
339 15 36 34 13 359 5 10 7 344 344 341 341 336 322 306 306 312 318 326 320 313 313 310 305 302 302 295 294 291 285 288 290 286 282 287 292 291 290 288 291 300 308 315
335 342 347 338 334 331 333 328 315 310 319 319 310 316 333 344 335 331 328 327 315 304 303 302 300 304 302 294 286 282 280 288 296 294 283 280 281 283 283 283 283 292 300 306
300 281 275 269 282 300 312 317 315 313 306 308 315 326 322 309 304 309 316 326 327 320 311 303 302 308 304 294 284 273 278 287 288 281 282 283 285 286 288 292 296 295 305 315
345 332 325 318 301 291 298 306 310 313 315 321 320 299 286 284 289 297 309 320 319 314 314 312 317 319 310 304 306 281 281 295 300 293 289 292 309 314 312 313 306 300 306 315
353 349 347 341 339 328 316 313 317 320 317 318 315 311 309 305 303 305 309 301 292 288 298 309 317 317 306 296 305 296 289 289 291 291 290 291 305 313 310 309 305 304 304 309
344 346 346 343 339 338 329 321 322 320 321 323 305 292 295 300 302 301 302 303 305 310 316 320 324 314 305 303 319 328 308 301 295 285 283 288 306 307 304 303 303 302 304 310
335 338 337 336 338 334 332 331 326 322 326 327 320 311 310 310 309 305 289 279 296 320 328 316 313 313 320 328 346 338 323 322 315 312 315 310 302 293 291 296 299 301 308 312
326 329 334 332 327 325 333 338 333 326 319 314 309 306 299 295 295 299 310 314 315 323 328 316 322 331 341 356 8 359 344 339 331 324 319 315 302 294 293 294 297 305 314 315
328 332 331 330 337 347 345 339 337 331 320 313 307 300 298 308 316 310 296 311 326 329 327 326 337 347 356 12 18 13 1 355 342 331 329 322 317 314 309 311 315 318 315 313
323 324 333 342 344 332 325 329 335 336 336 333 328 324 317 301 296 310 319 321 327 336 336 335 346 356 4 6 9 1 353 354 355 348 338 332 330 327 323 321 324 325 321 317
317 318 314 307 301 306 315 323 326 326 330 330 330 331 335 333 324 320 325 328 329 338 342 339 341 350 356 355 356 356 355 347 349 354 350 340 335 330 325 325 324 318 314 313
313 319 324 326 323 315 311 312 310 311 313 312 315 323 328 330 333 335 334 335 336 341 342 343 348 349 348 354 359 359 357 353 349 346 339 329 324 322 320 319 316 315 314 318
Height
1450 1448 1449 1449 1449 1449 1451 1451 1453 1449 1449 1448 1448 1448 1449 1451 1452 1453 1454 1455 1456 1457 1458 1458 1459 1460 1460 1461 1461 1462 1462 1462 1461 1461 1461 1461 1460 1459 1458 1457 1456 1455 1454 1454
1450 1446 1446 1447 1446 1446 1447 1446 1447 1447 1448 1446 1447 1448 1449 1451 1452 1453 1454 1455 1456 1457 1457 1458 1458 1459 1459 1459 1460 1460 1460 1459 1459 1459 1458 1457 1457 1456 1455 1454 1453 1452 1451 1450
1453 1448 1447 1451 1446 1445 1445 1443 1443 1445 1445 1445 1447 1449 1450 1451 1451 1452 1454 1455 1456 1457 1457 1457 1458 1458 1458 1458 1458 1458 1458 1457 1456 1456 1455 1454 1454 1453 1452 1451 1450 1449 1448 1447
1455 1454 1458 1449 1442 1441 1441 1441 1441 1442 1444 1445 1447 1449 1450 1451 1452 1452 1453 1455 1456 1456 1456 1457 1457 1457 1457 1456 1456 1456 1455 1455 1454 1453 1452 1451 1451 1450 1449 1448 1447 1446 1445 1444
1456 1457 1453 1446 1443 1443 1443 1444 1443 1443 1444 1446 1447 1448 1451 1452 1452 1452 1453 1454 1455 1455 1455 1456 1456 1456 1455 1455 1455 1454 1453 1452 1452 1451 1450 1449 1448 1447 1446 1445 1444 1443 1442 1441
1457 1456 1454 1447 1443 1441 1443 1447 1444 1443 1444 1446 1447 1451 1453 1452 1452 1452 1453 1453 1454 1454 1454 1454 1454 1454 1454 1453 1453 1452 1451 1451 1450 1449 1448 1447 1446 1445 1444 1443 1441 1440 1439 1438
1457 1458 1453 1447 1443 1441 1449 1448 1444 1443 1444 1445 1446 1449 1450 1451 1452 1452 1452 1453 1453 1453 1453 1453 1453 1453 1452 1451 1451 1450 1449 1449 1448 1447 1446 1445 1444 1443 1441 1440 1439 1438 1436 1435
1458 1459 1457 1446 1444 1447 1447 1444 1443 1443 1444 1444 1445 1447 1448 1450 1450 1451 1451 1451 1452 1451 1451 1451 1451 1451 1450 1449 1449 1448 1447 1446 1445 1444 1443 1442 1441 1440 1439 1438 1436 1435 1433 1432
1454 1455 1450 1447 1446 1445 1444 1444 1444 1444 1444 1444 1445 1446 1448 1449 1449 1450 1450 1450 1450 1450 1449 1449 1449 1449 1448 1447 1446 1445 1444 1443 1442 1441 1441 1440 1438 1437 1436 1435 1433 1432 1430 1429
1452 1451 1449 1448 1446 1446 1445 1444 1444 1444 1444 1445 1445 1446 1447 1448 1448 1448 1448 1449 1448 1448 1447 1447 1447 1446 1445 1444 1444 1443 1442 1441 1440 1438 1437 1437 1436 1434 1433 1432 1430 1429 1427 1426
1452 1451 1449 1448 1447 1446 1445 1445 1445 1444 1445 1445 1445 1445 1446 1446 1447 1447 1447 1447 1447 1446 1445 1445 1444 1443 1443 1442 1441 1440 1439 1438 1437 1436 1434 1433 1432 1431 1430 1429 1428 1427 1425 1424
1452 1451 1450 1449 1448 1447 1446 1445 1445 1445 1444 1445 1445 1445 1445 1445 1445 1445 1445 1445 1444 1444 1443 1442 1441 1440 1440 1439 1438 1437 1435 1435 1434 1432 1431 1430 1428 1428 1427 1426 1425 1423 1422 1421
1450 1449 1449 1448 1447 1447 1446 1446 1445 1444 1444 1444 1444 1444 1444 1443 1443 1443 1443 1442 1442 1441 1440 1439 1438 1438 1437 1436 1435 1434 1432 1431 1430 1429 1428 1427 1425 1424 1422 1422 1421 1420 1419 1417
1450 1449 1448 1448 1447 1447 1446 1445 1444 1444 1443 1443 1442 1442 1442 1442 1441 1441 1441 1440 1439 1438 1437 1436 1435 1434 1434 1433 1432 1430 1429 1428 1427 1426 1425 1424 1422 1421 1420 1418 1417 1416 1415 1414
1449 1449 1448 1447 1446 1446 1445 1444 1443 1442 1442 1441 1441 1441 1440 1440 1439 1439 1438 1438 1437 1436 1434 1433 1432 1431 1431 1430 1428 1427 1426 1425 1424 1423 1422 1421 1419 1418 1417 1416 1414 1413 1412 1411
1449 1448 1447 1446 1445 1445 1444 1443 1442 1441 1440 1440 1439 1439 1438 1438 1437 1436 1436 1435 1434 1432 1431 1430 1429 1428 1427 1426 1425 1424 1423 1422 1421 1420 1418 1417 1416 1415 1414 1413 1411 1410 1409 1408
1448 1447 1446 1445 1445 1444 1443 1442 1441 1440 1439 1438 1437 1437 1436 1435 1435 1434 1433 1433 1431 1430 1429 1427 1426 1425 1424 1423 1422 1421 1420 1418 1418 1416 1415 1414 1413 1412 1411 1410 1409 1408 1407 1407
1448 1447 1446 1445 1443 1442 1441 1440 1439 1438 1438 1437 1436 1435 1434 1433 1432 1431 1430 1429 1428 1427 1426 1425 1423 1422 1421 1420 1419 1418 1417 1416 1414 1413 1412 1411 1410 1409 1408 1408 1407 1406 1405 1404
1446 1445 1444 1443 1442 1441 1440 1439 1438 1437 1436 1435 1434 1432 1432 1431 1430 1429 1428 1426 1425 1423 1423 1422 1420 1419 1418 1417 1416 1415 1414 1413 1412 1411 1410 1409 1408 1407 1406 1405 1405 1404 1403 1402
1445 1443 1442 1441 1440 1439 1438 1437 1436 1434 1434 1433 1431 1430 1429 1429 1428 1427 1425 1424 1423 1421 1420 1418 1417 1416 1415 1414 1413 1412 1411 1410 1409 1408 1407 1407 1406 1405 1404 1404 1403 1402 1401 1401
1443 1442 1441 1439 1438 1437 1436 1435 1434 1432 1431 1430 1429 1428 1427 1426 1425 1424 1422 1421 1420 1419 1417 1416 1415 1413 1412 1412 1411 1410 1409 1408 1407 1406 1406 1405 1404 1403 1403 1402 1401 1401 1400 1399
1442 1440 1439 1438 1436 1435 1434 1433 1432 1430 1429 1428 1427 1426 1425 1424 1423 1421 1420 1419 1418 1416 1415 1413 1412 1411 1410 1410 1409 1408 1407 1406 1406 1405 1404 1404 1403 1402 1402 1401 1400 1400 1399 1398
1441 1439 1438 1436 1435 1433 1432 1431 1430 1429 1427 1426 1425 1424 1423 1421 1420 1419 1417 1417 1415 1414 1413 1412 1411 1410 1409 1408 1407 1407 1406 1405 1404 1404 1403 1403 1402 1401 1401 1400 1399 1398 1398 1397
1439 1438 1436 1435 1433 1432 1430 1429 1428 1427 1426 1425 1424 1423 1421 1420 1419 1418 1416 1415 1414 1413 1411 1410 1409 1409 1408 1407 1406 1405 1405 1404 1403 1403 1402 1402 1401 1400 1400 1399 1398 1397 1397 1396
1438 1436 1435 1433 1432 1430 1429 1428 1426 1425 1424 1423 1422 1421 1420 1419 1417 1416 1415 1413 1412 1411 1410 1409 1408 1407 1407 1406 1405 1404 1404 1403 1402 1402 1401 1401 1400 1399 1399 1398 1397 1397 1396 1395
1436 1435 1433 1432 1431 1429 1428 1427 1425 1424 1423 1422 1421 1420 1419 1418 1416 1415 1414 1412 1411 1410 1409 1408 1407 1407 1406 1405 1404 1403 1403 1402 1402 1401 1400 1400 1399 1398 1398 1397 1396 1396 1395 1394
1434 1433 1432 1431 1429 1428 1427 1426 1424 1423 1422 1421 1419 1418 1417 1416 1415 1414 1413 1411 1410 1409 1408 1408 1407 1406 1405 1405 1404 1403 1402 1402 1401 1400 1400 1399 1398 1398 1397 1396 1396 1395 1394 1393